Location: Cincinnati Observatory Center
(39.1389°N, 84.4225°W)
Time: 19:07:54
(UTC-04:00)

Amateur Radio Satellites - All Passes

Search period start: 01 May 2016 18:37
Search period end: 02 May 2016 18:37
Location: Cincinnati Observatory Center, 39.1389°N, 84.4225°W

Satellite Date Start Highest point End Downlink Frequencies (MHz)
Time Altitude Azimuth
LilacSat-2 01 May 18:38:08 18:41:37 32° 72° (ENE) 18:45:06 437.200
CUTE-I 01 May 18:41:43 18:46:49 49° 71° (ENE) 18:51:56 437.470
NOAA 18 01 May 18:42:00 18:47:29 69° 73° (ENE) 18:52:58 137.9125
AUBIESAT-1 01 May 18:43:16 18:46:51 23° 63° (ENE) 18:50:26 437.475
GOMX 1 01 May 18:51:09 18:55:17 27° 67° (ENE) 18:59:39 467.674
DOVE 4 01 May 18:55:48 18:58:47 16° 63° (ENE) 19:01:51 437.250
SO-50 01 May 18:56:15 18:58:28 13° 253° (WSW) 19:00:38 436.795
MOZHAYETS 4 01 May 18:59:10 19:01:50 16° 295° (WNW) 19:04:32
CUBESAT XI-V 01 May 19:01:37 19:06:18 67° 101° (E) 19:10:59 437.345
BRITE-PL 01 May 19:09:24 19:14:07 79° 75° (ENE) 19:19:16 437.365/2234.400
Cubesat XI-IV 01 May 19:25:27 19:30:45 66° 258° (WSW) 19:36:04 437.490
NOAA 15 01 May 19:29:06 19:34:00 39° 262° (W) 19:38:57 137.62
STRAND 1 01 May 19:46:37 19:49:49 16° 92° (E) 19:52:59 437.568
CINEMA 3 01 May 19:49:09 19:52:20 17° 65° (ENE) 19:55:33 145.822/145.860
M-CUBED/EXP-1 PRIME 01 May 19:56:29 20:01:05 53° 255° (WSW) 20:05:42 437.505
Cosmos 2491 01 May 20:01:13 20:09:37 51° 271° (W) 20:17:57 435.465 / 435.565
HO-68 01 May 20:05:22 20:11:52 40° 65° (ENE) 20:18:24 435.675
BEESAT 3 01 May 20:07:15 20:11:07 54° 304° (NW) 20:15:01 437.485
CANX-2 01 May 20:09:34 20:12:59 24° 69° (ENE) 20:16:23 2200.000
YUBILEINY 01 May 20:10:51 20:19:37 87° 97° (E) 20:28:23 435.215
BEESAT 2 01 May 20:11:45 20:15:43 85° 301° (WNW) 20:19:44 435.950
LilacSat-2 01 May 20:13:33 20:16:00 16° 267° (W) 20:18:28 437.200
AUBIESAT-1 01 May 20:16:44 20:21:04 39° 257° (WSW) 20:25:24 437.475
AAUSAT CUBESAT 2 01 May 20:17:50 20:18:35 10° 64° (ENE) 20:19:21 437.432
CUTE-I 01 May 20:23:19 20:27:07 20° 267° (W) 20:30:55 437.470
NOAA 18 01 May 20:25:39 20:28:36 15° 269° (W) 20:31:34 137.9125
GOMX 1 01 May 20:28:41 20:33:10 35° 265° (W) 20:37:57 467.674
JUGNU 01 May 20:29:19 20:30:33 11° 176° (S) 20:31:48 437.505
DOVE 4 01 May 20:30:50 20:35:50 65° 260° (W) 20:41:05 437.250
CUBESAT XI-V 01 May 20:41:01 20:43:07 13° 297° (WNW) 20:45:11 437.345
CUTE 1.7 + AOD 2 01 May 20:41:52 20:45:55 49° 74° (ENE) 20:50:00 437.475
UWE-3 01 May 20:42:02 20:44:04 13° 64° (ENE) 20:46:05 435.000/436.395/437.385
Cosmos 2504 01 May 20:42:38 20:49:00 33° 87° (E) 20:55:13 435.465 / 435.565
CUBEBUG 2 01 May 20:45:06 20:48:32 20° 67° (ENE) 20:51:55 437.445
PRISM 01 May 21:02:45 21:05:34 17° 94° (E) 21:08:22 437.425
SEEDS 01 May 21:11:25 21:15:35 80° 76° (ENE) 21:19:46 437.485
ZACube-1 01 May 21:14:29 21:17:37 19° 67° (ENE) 21:20:44 437.345
COMPASS 1 01 May 21:17:17 21:21:23 66° 75° (ENE) 21:25:29 437.405
CINEMA 3 01 May 21:24:05 21:28:59 56° 261° (W) 21:33:56 145.822/145.860
STRAND 1 01 May 21:24:19 21:29:18 54° 288° (WNW) 21:34:16 437.568
AIST 2 01 May 21:32:42 21:36:39 46° 116° (ESE) 21:40:37 435.215
DELFI C3 01 May 21:40:04 21:42:37 17° 67° (ENE) 21:45:11 145.870
CANX-2 01 May 21:45:11 21:48:44 26° 264° (W) 21:52:17 2200.000
AAUSAT CUBESAT 2 01 May 21:49:27 21:53:32 63° 260° (W) 21:57:37 437.432
HO-68 01 May 21:52:57 21:59:31 39° 262° (W) 22:06:08 435.675
BEESAT 2 01 May 21:53:54 21:54:13 10° 319° (NW) 21:54:31 435.950
Oscar 11 01 May 21:57:56 22:02:11 61° 75° (ENE) 22:06:27 145.826/435.025
FUNcube-1 01 May 22:07:27 22:11:57 65° 75° (ENE) 22:16:23 145.935
YUBILEINY 01 May 22:11:53 22:17:35 19° 296° (WNW) 22:23:18 435.215
UWE-3 01 May 22:15:20 22:19:58 66° 259° (W) 22:24:33 435.000/436.395/437.385
RS-15 01 May 22:16:35 22:27:18 55° 111° (ESE) 22:38:36 29.354- 29.394
CUTE 1.7 + AOD 2 01 May 22:20:10 22:22:02 13° 269° (W) 22:23:54 437.475
CUBEBUG 2 01 May 22:20:21 22:24:50 41° 262° (W) 22:29:18 437.445
HUMSAT D 01 May 22:28:14 22:31:50 28° 70° (ENE) 22:35:26 437.325/437.525
AO-85 01 May 22:35:23 22:40:02 48° 54° (NE) 22:44:16 145.980
Cosmos 2504 01 May 22:35:25 22:42:10 40° 285° (WNW) 22:48:50 435.465 / 435.565
PRISM 01 May 22:37:10 22:40:58 35° 289° (WNW) 22:44:46 437.425
ZACube-1 01 May 22:49:19 22:53:36 40° 262° (W) 22:57:51 437.345
TIGRISAT 01 May 23:00:56 23:03:15 14° 92° (E) 23:05:33 435.000
VELOX 1 01 May 23:07:22 23:08:48 11° 62° (ENE) 23:10:14 145.980
DX 1 01 May 23:09:15 23:10:01 10° 62° (ENE) 23:10:46 434.975-435.025
AIST 2 01 May 23:12:29 23:15:22 18° 314° (NW) 23:18:16 435.215
DELFI C3 01 May 23:13:39 23:17:14 33° 263° (W) 23:20:50 145.870
SRMSAT 01 May 23:14:10 23:15:53 11° 180° (S) 23:17:36 437.500
UKube-1 01 May 23:17:56 23:18:44 10° 62° (ENE) 23:19:34 .
50 SAT 01 May 23:19:45 23:21:40 14° 67° (ENE) 23:23:36 437.505
ANTELSAT 01 May 23:24:05 23:27:48 28° 96° (E) 23:31:28 437.575/2403.000
AISAT 01 May 23:36:47 23:40:24 25° 68° (ENE) 23:44:03 437.250
Oscar 11 01 May 23:37:48 23:38:41 11° 270° (W) 23:39:35 145.826/435.025
FUNcube-1 01 May 23:47:21 23:48:33 11° 270° (W) 23:49:46 145.935
SPROUT 01 May 23:49:24 23:50:49 11° 63° (ENE) 23:52:14 437.525
ESTCUBE 1 01 May 23:49:48 23:54:03 45° 72° (ENE) 23:58:19 437.505/2401.250
GONETS M04 02 May 00:02:55 00:08:11 18° 78° (ENE) 00:13:26
HUMSAT D 02 May 00:04:06 00:07:27 22° 265° (W) 00:10:47 437.325/437.525
CUBEBUG 1 02 May 00:16:08 00:20:26 61° 74° (ENE) 00:24:47 437.445
AO-85 02 May 00:17:06 00:19:59 17° 253° (WSW) 00:22:43 145.980
UNISAT 6 02 May 00:17:58 00:22:17 68° 286° (WNW) 00:26:31 437.425
NANOSAT C BR1 02 May 00:18:10 00:21:18 20° 94° (E) 00:24:24 145.865
AIST 1 02 May 00:20:57 00:22:18 11° 84° (E) 00:23:41
RS-15 02 May 00:29:07 00:39:57 47° 315° (NW) 00:51:25 29.354- 29.394
TIGRISAT 02 May 00:36:04 00:40:12 45° 288° (WNW) 00:44:15 435.000
VELOX 1 02 May 00:40:16 00:44:40 69° 259° (WSW) 00:49:07 145.980
DX 1 02 May 00:41:13 00:45:33 74° 257° (WSW) 00:49:57 434.975-435.025
UKube-1 02 May 00:49:52 00:54:10 72° 258° (WSW) 00:58:30 .
50 SAT 02 May 00:51:48 00:55:10 34° 262° (W) 00:58:32 437.505
JAS-2 02 May 00:53:58 00:56:32 12° 85° (E) 00:59:06 435.910
Cosmos 2499 02 May 00:54:53 00:58:55 16° 80° (E) 01:02:57 435.465 / 435.565
ANTELSAT 02 May 01:00:56 01:04:24 23° 292° (WNW) 01:07:48 437.575/2403.000
PCSat 02 May 01:05:04 01:09:32 25° 50° (NE) 01:13:58 145.827
QB50P2 02 May 01:09:01 01:13:17 88° 102° (ESE) 01:17:30 145.880/145.840
DUCHIFAT 1 02 May 01:10:16 01:14:30 78° 102° (ESE) 01:18:42 145.980
POLYITAN 1 02 May 01:11:10 01:15:26 90° 101° (E) 01:19:38 437.675
AISAT 02 May 01:12:55 01:16:45 28° 264° (W) 01:20:38 437.250
POPSAT HIP 1 02 May 01:14:05 01:18:21 86° 283° (WNW) 01:22:34 437.405
QB50P1 02 May 01:17:26 01:21:42 78° 282° (WNW) 01:25:54 145.935-145.965
SPROUT 02 May 01:21:55 01:26:12 65° 259° (WSW) 01:30:30 437.525
ESTCUBE 1 02 May 01:28:22 01:31:04 16° 268° (W) 01:33:47 437.505/2401.250
SWISSCUBE 02 May 01:34:18 01:35:43 11° 61° (ENE) 01:37:08 437.505
O/OREOS (USA 219) 02 May 01:41:39 01:46:06 56° 66° (ENE) 01:50:30 437.305
NANOSAT C BR1 02 May 01:53:19 01:57:05 31° 289° (WNW) 02:00:47 145.865
GONETS M04 02 May 01:54:51 02:03:44 88° 278° (W) 02:12:38
AIST 1 02 May 01:55:08 01:59:20 53° 280° (W) 02:03:36
CUBEBUG 1 02 May 01:55:55 01:57:06 11° 270° (W) 01:58:18 437.445
BUGSAT 1 02 May 01:56:59 02:01:09 63° 285° (WNW) 02:05:14 437.445
TISAT 1 02 May 02:00:02 02:04:17 82° 257° (WSW) 02:08:34 437.305
BEESAT 02 May 02:05:11 02:08:45 21° 66° (ENE) 02:12:19 436.000
Gurwin Techsat 1B 02 May 02:30:04 02:32:35 13° 90° (E) 02:35:04 435.225
JAS-2 02 May 02:34:51 02:42:39 70° 102° (ESE) 02:50:25 435.910
CUSAT 1 02 May 02:37:17 02:44:13 47° 76° (ENE) 02:51:54 437.405
Oscar 19 02 May 02:42:13 02:47:13 45° 99° (E) 02:52:10 437.125/150
Cosmos 2499 02 May 02:44:00 02:51:05 75° 278° (W) 02:58:12 435.465 / 435.565
PCSat 02 May 02:47:57 02:53:09 47° 248° (WSW) 02:58:18 145.827
RS-15 02 May 02:48:22 02:56:37 21° 347° (NNW) 03:05:09 29.354- 29.394
ITUPSAT 1 02 May 02:58:05 03:02:49 73° 75° (ENE) 03:07:35 437.325
SWISSCUBE 02 May 03:08:05 03:12:49 79° 257° (WSW) 03:17:36 437.505
DANDE 02 May 03:10:06 03:16:18 42° 77° (ENE) 03:23:43 436.750
O/OREOS (USA 219) 02 May 03:23:04 03:24:57 12° 262° (W) 03:26:49 437.305
BEESAT 02 May 03:41:50 03:46:16 38° 262° (W) 03:50:43 436.000
GONETS M04 02 May 03:56:21 04:01:51 18° 297° (WNW) 04:07:23
ITAMSAT 1 02 May 03:58:34 04:03:24 39° 98° (E) 04:08:14 435.822/435.867
Gurwin Techsat 1B 02 May 04:07:42 04:13:00 70° 286° (WNW) 04:18:17 435.225
AO-7 02 May 04:16:31 04:23:04 25° 95° (E) 04:29:34 29.400- 29.500
CUSAT 1 02 May 04:19:40 04:26:12 36° 270° (W) 04:33:20 437.405
JAS-2 02 May 04:20:52 04:26:58 26° 298° (WNW) 04:33:07 435.910
MOZHAYETS 4 02 May 04:21:20 04:25:38 42° 72° (ENE) 04:29:55
Oscar 19 02 May 04:22:18 04:26:12 22° 295° (WNW) 04:30:04 437.125/150
KKS-1 02 May 04:25:04 04:29:32 77° 76° (ENE) 04:34:02 437.445
BEESAT 3 02 May 04:25:32 04:29:26 57° 56° (NE) 04:33:18 437.485
BEESAT 2 02 May 04:31:02 04:34:46 38° 53° (NE) 04:38:29 435.950
ITUPSAT 1 02 May 04:40:06 04:41:08 11° 270° (W) 04:42:10 437.325
Cosmos 2499 02 May 04:44:02 04:45:33 11° 299° (WNW) 04:47:04 435.465 / 435.565
STARS 02 May 04:44:25 04:48:48 64° 75° (ENE) 04:53:12 437.465
DANDE 02 May 04:53:00 04:59:04 37° 267° (W) 05:06:13 436.750
RS-15 02 May 05:05:59 05:15:20 24° 23° (NNE) 05:24:48 29.354- 29.394
ITAMSAT 1 02 May 05:38:31 05:42:38 25° 294° (WNW) 05:46:46 435.822/435.867
HORYU 2 02 May 05:44:59 05:48:51 29° 97° (E) 05:52:42 437.375
AIST 2 02 May 05:55:21 05:58:44 23° 49° (NE) 06:02:05 435.215
MOZHAYETS 4 02 May 05:59:55 06:02:58 17° 267° (W) 06:06:01
CUBESAT XI-V 02 May 06:03:40 06:08:09 55° 74° (ENE) 06:12:40 437.345
BEESAT 3 02 May 06:05:31 06:06:38 11° 252° (WSW) 06:07:45 437.485
AO-7 02 May 06:08:07 06:16:22 68° 292° (WNW) 06:24:37 29.400- 29.500
BEESAT 2 02 May 06:09:42 06:12:20 17° 250° (WSW) 06:14:56 435.950
YUBILEINY 02 May 06:22:43 06:30:50 41° 74° (ENE) 06:38:55 435.215
STARS 02 May 06:24:30 06:25:33 11° 269° (W) 06:26:36 437.465
Cosmos 2504 02 May 06:39:10 06:39:44 10° 61° (ENE) 06:40:18 435.465 / 435.565
CUTE-I 02 May 07:00:35 07:04:34 21° 94° (E) 07:08:32 437.470
STRAND 1 02 May 07:01:20 07:05:13 22° 65° (ENE) 07:09:05 437.568
Cosmos 2491 02 May 07:04:26 07:12:24 40° 86° (E) 07:20:24 435.465 / 435.565
NOAA 18 02 May 07:05:36 07:10:25 31° 97° (E) 07:15:11 137.9125
BRITE-PL 02 May 07:15:15 07:20:22 33° 95° (E) 07:25:21 437.365/2234.400
RS-15 02 May 07:18:53 07:31:04 62° 52° (NE) 07:43:13 29.354- 29.394
HORYU 2 02 May 07:21:43 07:25:15 24° 292° (WNW) 07:28:46 437.375
SO-50 02 May 07:27:10 07:31:17 27° 112° (ESE) 07:35:26 436.795
AIST 2 02 May 07:33:32 07:37:15 32° 246° (WSW) 07:40:56 435.215
CUBESAT XI-V 02 May 07:43:39 07:45:52 13° 269° (W) 07:48:05 437.345
Cubesat XI-IV 02 May 07:43:48 07:49:01 54° 101° (E) 07:54:13 437.490
NOAA 15 02 May 07:44:49 07:50:10 85° 104° (ESE) 07:55:30 137.62
LilacSat-2 02 May 07:46:27 07:50:13 57° 100° (E) 07:53:56 437.200
PRISM 02 May 07:52:52 07:54:13 11° 63° (ENE) 07:55:35 437.425
AUBIESAT-1 02 May 07:58:45 08:00:44 14° 96° (E) 08:02:39 437.475
AO-7 02 May 08:03:25 08:07:38 15° 312° (NW) 08:11:51 29.400- 29.500
ISS 02 May 08:09:19 08:12:28 48° 137° (SE) 08:15:38 145.825
YUBILEINY 02 May 08:19:37 08:27:33 41° 273° (W) 08:35:30 435.215
Cosmos 2504 02 May 08:26:59 08:34:33 65° 81° (E) 08:42:38 435.465 / 435.565
GOMX 1 02 May 08:31:03 08:36:33 83° 102° (ESE) 08:41:46 467.674
DOVE 4 02 May 08:31:26 08:36:16 40° 97° (E) 08:40:50 437.250
STRAND 1 02 May 08:39:17 08:44:05 42° 261° (W) 08:48:56 437.568
CUTE-I 02 May 08:39:45 08:44:48 46° 289° (WNW) 08:49:51 437.470
NOAA 18 02 May 08:46:12 08:51:02 33° 293° (WNW) 08:55:50 137.9125
BRITE-PL 02 May 08:53:39 08:58:44 34° 291° (WNW) 09:03:44 437.365/2234.400
SEEDS 02 May 08:57:53 09:00:09 14° 92° (E) 09:02:24 437.485
Cosmos 2491 02 May 09:00:50 09:09:05 43° 285° (WNW) 09:17:26 435.465 / 435.565
COMPASS 1 02 May 09:03:33 09:04:49 11° 91° (E) 09:06:06 437.405
SO-50 02 May 09:07:06 09:11:38 37° 309° (NW) 09:16:12 436.795
M-CUBED/EXP-1 PRIME 02 May 09:12:23 09:16:14 51° 291° (WNW) 09:19:46 437.505
CINEMA 3 02 May 09:20:34 09:24:54 38° 97° (E) 09:29:01 145.822/145.860
HO-68 02 May 09:21:09 09:27:57 45° 99° (E) 09:34:43 435.675
Cubesat XI-IV 02 May 09:24:59 09:28:39 19° 297° (WNW) 09:32:17 437.490
PRISM 02 May 09:25:01 09:29:01 57° 259° (W) 09:33:04 437.425
NOAA 15 02 May 09:26:59 09:29:11 13° 301° (WNW) 09:31:24 137.62
CANX-2 02 May 09:30:26 09:34:35 55° 100° (E) 09:38:44 2200.000
AUBIESAT-1 02 May 09:31:52 09:35:29 36° 294° (WNW) 09:38:49 437.475
RS-15 02 May 09:32:03 09:43:03 41° 254° (WSW) 09:54:00 29.354- 29.394
AAUSAT CUBESAT 2 02 May 09:33:29 09:36:38 21° 94° (E) 09:39:45 437.432
ISS 02 May 09:46:27 09:49:05 22° 334° (NNW) 09:51:44 145.825
Oscar 11 02 May 09:48:17 09:49:58 12° 91° (E) 09:51:39 145.826/435.025
FUNcube-1 02 May 09:58:48 10:00:31 12° 91° (E) 10:02:14 145.935
TIGRISAT 02 May 09:59:00 10:01:14 13° 64° (ENE) 10:03:27 435.000
PHONESAT 2.4 02 May 10:01:48 10:03:12 12° 146° (SE) 10:04:37 2401.200-2431.200
CUTE 1.7 + AOD 2 02 May 10:03:22 10:07:34 69° 284° (WNW) 10:11:45 437.475
UWE-3 02 May 10:06:55 10:10:27 25° 95° (E) 10:13:55 435.000/436.395/437.385
DOVE 4 02 May 10:09:41 10:13:38 23° 294° (WNW) 10:17:26 437.250
GOMX 1 02 May 10:11:17 10:13:48 13° 299° (WNW) 10:16:17 467.674
CUBEBUG 2 02 May 10:12:30 10:16:39 43° 99° (E) 10:20:39 437.445
Cosmos 2504 02 May 10:21:40 10:27:17 23° 277° (W) 10:33:11 435.465 / 435.565
ANTELSAT 02 May 10:21:45 10:25:28 24° 68° (ENE) 10:29:10 437.575/2403.000
SEEDS 02 May 10:32:05 10:36:03 43° 287° (WNW) 10:40:01 437.485
COMPASS 1 02 May 10:36:38 10:40:42 54° 286° (WNW) 10:44:45 437.405
ZACube-1 02 May 10:38:51 10:42:48 39° 98° (E) 10:46:40 437.345
DELFI C3 02 May 10:52:16 10:55:50 30° 97° (E) 10:59:21 145.870
CINEMA 3 02 May 10:58:24 11:01:42 20° 294° (WNW) 11:04:55 145.822/145.860
CANX-2 02 May 11:08:11 11:09:58 12° 295° (WNW) 11:11:44 2200.000
AAUSAT CUBESAT 2 02 May 11:08:32 11:12:07 29° 290° (WNW) 11:15:42 437.432
HO-68 02 May 11:09:11 11:15:28 34° 297° (WNW) 11:21:43 435.675
NANOSAT C BR1 02 May 11:10:14 11:12:29 14° 65° (ENE) 11:14:45 145.865
UNISAT 6 02 May 11:14:56 11:19:37 89° 74° (ENE) 11:24:15 437.425
Oscar 11 02 May 11:22:12 11:26:24 54° 286° (WNW) 11:30:35 145.826/435.025
TIGRISAT 02 May 11:32:47 11:37:24 62° 259° (WSW) 11:41:59 435.000
FUNcube-1 02 May 11:33:01 11:37:04 48° 286° (WNW) 11:41:03 145.935
PHONESAT 2.4 02 May 11:36:33 11:39:38 55° 160° (SSE) 11:42:44 2401.200-2431.200
UWE-3 02 May 11:43:22 11:46:49 24° 291° (WNW) 11:50:12 435.000/436.395/437.385
ESTCUBE 1 02 May 11:46:38 11:46:59 10° 90° (E) 11:47:21 437.505/2401.250
HUMSAT D 02 May 11:47:36 11:51:39 60° 101° (E) 11:55:40 437.325/437.525
CUBEBUG 2 02 May 11:50:20 11:52:52 15° 295° (WNW) 11:55:22 437.445
ANTELSAT 02 May 11:57:51 12:02:01 32° 263° (W) 12:06:09 437.575/2403.000
QB50P2 02 May 12:00:11 12:04:22 55° 74° (ENE) 12:08:35 145.880/145.840
DUCHIFAT 1 02 May 12:00:47 12:04:52 48° 73° (ENE) 12:09:00 145.980
POLYITAN 1 02 May 12:02:19 12:06:31 57° 74° (ENE) 12:10:45 437.675
AIST 1 02 May 12:03:22 12:07:20 31° 77° (ENE) 12:11:16
POPSAT HIP 1 02 May 12:05:04 12:09:17 59° 74° (ENE) 12:13:31 437.405
GONETS M04 02 May 12:06:56 12:15:14 44° 75° (ENE) 12:23:25
CUBEBUG 1 02 May 12:07:46 12:09:41 13° 91° (E) 12:11:36 437.445
QB50P1 02 May 12:08:20 12:12:35 66° 75° (ENE) 12:16:50 145.935-145.965
ZACube-1 02 May 12:16:08 12:18:45 16° 294° (WNW) 12:21:21 437.345
50 SAT 02 May 12:23:04 12:25:45 19° 95° (E) 12:28:26 437.505
DELFI C3 02 May 12:27:40 12:30:29 19° 292° (WNW) 12:33:18 145.870
DX 1 02 May 12:31:16 12:34:34 20° 95° (E) 12:37:50 434.975-435.025
VELOX 1 02 May 12:32:02 12:35:40 24° 95° (E) 12:39:17 145.980
Cosmos 2499 02 May 12:35:09 12:42:09 36° 74° (ENE) 12:49:35 435.465 / 435.565
UKube-1 02 May 12:38:53 12:42:06 20° 95° (E) 12:45:18 .
NANOSAT C BR1 02 May 12:43:39 12:47:47 49° 260° (W) 12:51:58 145.865
BUGSAT 1 02 May 12:45:00 12:49:13 75° 76° (ENE) 12:53:29 437.445
JAS-2 02 May 12:47:08 12:51:56 25° 61° (ENE) 12:57:13 435.910
AO-85 02 May 12:48:13 12:52:35 25° 110° (ESE) 12:56:59 145.980
ISS 02 May 13:02:41 13:04:11 12° 15° (NNE) 13:05:40 145.825
AISAT 02 May 13:03:28 13:07:53 57° 100° (E) 13:12:16 437.250
SPROUT 02 May 13:09:40 13:13:06 23° 95° (E) 13:16:29 437.525
PHONESAT 2.4 02 May 13:13:22 13:16:30 66° 357° (N) 13:19:40 2401.200-2431.200
ESTCUBE 1 02 May 13:19:43 13:24:14 70° 285° (WNW) 13:28:45 437.505/2401.250
HUMSAT D 02 May 13:25:45 13:26:45 11° 296° (WNW) 13:27:44 437.325/437.525
DUCHIFAT 1 02 May 13:38:43 13:40:49 13° 268° (W) 13:42:57 145.980
QB50P2 02 May 13:38:58 13:40:30 12° 269° (W) 13:42:02 145.880/145.840
POLYITAN 1 02 May 13:41:12 13:42:40 11° 269° (W) 13:44:07 437.675
AIST 1 02 May 13:41:29 13:44:41 20° 273° (W) 13:47:53
CUBEBUG 1 02 May 13:41:56 13:46:17 55° 287° (WNW) 13:50:37 437.445
POPSAT HIP 1 02 May 13:44:15 13:45:25 11° 269° (W) 13:46:35 437.405
TISAT 1 02 May 13:46:19 13:49:01 16° 93° (E) 13:51:42 437.305
Gurwin Techsat 1B 02 May 13:49:35 13:53:26 21° 64° (ENE) 13:57:17 435.225
50 SAT 02 May 13:56:32 13:59:30 24° 290° (WNW) 14:02:29 437.505
Oscar 19 02 May 13:57:48 14:02:52 59° 72° (ENE) 14:07:58 437.125/150
GONETS M04 02 May 14:04:02 14:11:51 38° 274° (W) 14:19:38
DX 1 02 May 14:06:51 14:10:48 33° 290° (WNW) 14:14:43 434.975-435.025
VELOX 1 02 May 14:08:14 14:12:07 29° 291° (WNW) 14:15:58 145.980
UKube-1 02 May 14:14:18 14:18:12 33° 290° (WNW) 14:22:05 .
AO-85 02 May 14:27:35 14:32:51 47° 306° (NW) 14:38:05 145.980
Cosmos 2499 02 May 14:28:02 14:35:17 44° 270° (W) 14:43:02 435.465 / 435.565
JAS-2 02 May 14:30:49 14:36:30 51° 262° (W) 14:42:56 435.910
ISS 02 May 14:38:08 14:41:18 44° 34° (NE) 14:44:27 145.825
AISAT 02 May 14:41:39 14:43:52 14° 297° (WNW) 14:46:04 437.250
SPROUT 02 May 14:45:20 14:49:02 28° 290° (WNW) 14:52:41 437.525
PHONESAT 2.4 02 May 14:50:18 14:53:29 86° 187° (S) 14:56:38 2401.200-2431.200
ITUPSAT 1 02 May 15:00:32 15:04:02 20° 94° (E) 15:07:31 437.325
SWISSCUBE 02 May 15:09:45 15:13:51 28° 96° (E) 15:17:57 437.505
AO-7 02 May 15:14:26 15:21:32 33° 59° (ENE) 15:28:39 29.400- 29.500
ITAMSAT 1 02 May 15:15:20 15:20:22 54° 72° (ENE) 15:25:24 435.822/435.867
TISAT 1 02 May 15:20:53 15:24:49 38° 288° (WNW) 15:28:42 437.305
Gurwin Techsat 1B 02 May 15:27:52 15:32:59 49° 260° (W) 15:38:10 435.225
Oscar 19 02 May 15:39:31 15:42:33 16° 268° (W) 15:45:36 437.125/150
CUSAT 1 02 May 15:42:06 15:45:00 28° 88° (E) 15:48:36 437.405
BEESAT 02 May 15:42:35 15:47:17 57° 101° (E) 15:51:57 436.000
PCSat 02 May 15:45:58 15:50:22 26° 108° (ESE) 15:54:48 145.827
O/OREOS (USA 219) 02 May 15:52:23 15:56:59 84° 111° (ESE) 16:01:36 437.305
SO-50 02 May 15:59:42 16:03:15 20° 45° (NE) 16:06:43 436.795
ISS 02 May 16:15:14 16:17:31 18° 229° (SW) 16:19:47 145.825
KKS-1 02 May 16:18:26 16:21:12 16° 93° (E) 16:23:56 437.445
MOZHAYETS 4 02 May 16:20:19 16:21:01 10° 90° (E) 16:21:43
DANDE 02 May 16:21:39 16:23:59 23° 90° (E) 16:26:43 436.750
PHONESAT 2.4 02 May 16:27:32 16:30:06 23° 209° (SSW) 16:32:40 2401.200-2431.200
STARS 02 May 16:36:56 16:38:49 12° 91° (E) 16:40:42 437.465
ITUPSAT 1 02 May 16:37:33 16:42:00 40° 289° (WNW) 16:46:26 437.325
HORYU 2 02 May 16:42:06 16:45:45 25° 68° (ENE) 16:49:23 437.375
SWISSCUBE 02 May 16:47:31 16:51:34 28° 292° (WNW) 16:55:37 437.505
ITAMSAT 1 02 May 16:56:49 17:00:08 17° 267° (W) 17:03:28 435.822/435.867
AO-7 02 May 17:05:49 17:13:53 56° 257° (WSW) 17:22:02 29.400- 29.500
Cosmos 2491 02 May 17:16:57 17:22:38 18° 63° (ENE) 17:28:15 435.465 / 435.565
BEESAT 02 May 17:21:51 17:24:35 15° 297° (WNW) 17:27:18 436.000
CUSAT 1 02 May 17:25:15 17:27:23 15° 296° (WNW) 17:29:52 437.405
NOAA 15 02 May 17:26:55 17:29:54 15° 61° (ENE) 17:32:52 137.62
PCSat 02 May 17:28:24 17:33:30 42° 304° (NW) 17:38:40 145.827
Cubesat XI-IV 02 May 17:30:08 17:30:47 10° 58° (ENE) 17:31:26 437.490
O/OREOS (USA 219) 02 May 17:35:47 17:37:01 11° 308° (NW) 17:38:15 437.305
SO-50 02 May 17:39:30 17:44:03 51° 243° (WSW) 17:48:27 436.795
KKS-1 02 May 17:53:43 17:57:58 44° 288° (WNW) 18:02:11 437.445
MOZHAYETS 4 02 May 17:54:05 17:58:38 69° 285° (WNW) 18:03:10
CUBESAT XI-V 02 May 18:02:33 18:05:20 15° 92° (E) 18:08:06 437.345
STARS 02 May 18:11:12 18:15:31 54° 287° (WNW) 18:19:47 437.465
BEESAT 3 02 May 18:17:32 18:19:09 12° 109° (ESE) 18:20:46 437.485
HORYU 2 02 May 18:18:17 18:22:10 29° 263° (W) 18:26:04 437.375
CUTE-I 02 May 18:21:09 18:25:48 32° 68° (ENE) 18:30:28 437.470
M-CUBED/EXP-1 PRIME 02 May 18:24:03 18:27:04 17° 60° (ENE) 18:30:03 437.505
BRITE-PL 02 May 18:25:06 18:29:14 29° 67° (ENE) 18:33:40 437.365/2234.400
LilacSat-2 02 May 18:27:41 18:30:51 24° 70° (ENE) 18:34:02 437.200
